Regional Weather Roundup
Issued by NWS Charleston, SC

Current Version | Previous Version | Text Only | Print | Product List | Glossary On
Versions: 1 2 3 4 5 6 7 8 9 10 11 12 13 14 15 16 17 18 19 20 21 22 23 24 25 26 27 28 29 30 31 32 33 34 35 36 37 38 39 40 41 42 43 44 45 46 47 48 49 50
000 ASUS42 KCHS 181425 RWRCHS REGIONAL WEATHER ROUNDUP NATIONAL WEATHER SERVICE CHARLESTON SC 900 AM EST THU DEC 18 2014 NOTE: "FAIR" INDICATES FEW OR NO CLOUDS BELOW 12,000 FEET WITH NO SIGNIFICANT WEATHER AND/OR OBSTRUCTIONS TO VISIBILITY. NOT ALL STATIONS ARE QUALITY CONTROLLED BY THE NATIONAL WEATHER SERVICE. USE DATA WITH CAUTION...ESPECIALLY DEWPOINT OBSERVATIONS. SCZ027-030-031-034>040-042>050-181500- ...SOUTHEAST SOUTH CAROLINA... CITY SKY/WX TMP DP RH WIND PRES REMARKS N CHARLESTON MOSUNNY 47 43 86 NW3 30.17R WATERFRONT PRK N/A 50 N/A N/A W3 N/A MOUNT PLEASANT FAIR 48 45 87 CALM 30.17R PINOPOLIS N/A 52 46 82 CALM 30.07S MONCKS CORNER FAIR 46 43 87 CALM 30.17R SUMMERVILLE FAIR 45 43 93 CALM 30.18R BEAUFORT MCAS PTSUNNY 45 41 86 NW5 30.18R BEAUFORT ARPT FAIR 45 43 93 NW3 30.17R HILTON HEAD IS PTSUNNY 45 43 93 CALM 30.17R WALTERBORO MOSUNNY 45 N/A N/A CALM 30.18R ALLENDALE FAIR 43 41 93 CALM 30.16S ...SOUTHERN MIDLANDS AND PEE DEE... CITY SKY/WX TMP DP RH WIND PRES REMARKS GEORGETOWN NOT AVBL KINGSTREE NOT AVBL ORANGEBURG SUNNY 42 38 85 CALM 30.17R BARNWELL N/A 43 39 87 CALM 30.18R AIKEN FAIR 43 41 93 CALM 30.20R MANNING NOT AVBL COLUMBIA MOSUNNY 45 38 76 CALM 30.17R SUMTER PTSUNNY 44 36 75 NE10 30.17R FLORENCE CLOUDY 43 35 73 NE5 30.18R MYRTLE BEACH SUNNY 48 37 66 NE10 30.18 N MYRTLE BEACH PTSUNNY 46 39 76 NE7 30.17R $$ GAZ063-065-086>088-099>101-113>116-118-119-134>141-150-181500- ...SOUTHEAST GEORGIA... CITY SKY/WX TMP DP RH WIND PRES REMARKS SAVANNAH ARPT CLOUDY 44 38 79 NW6 30.18R HUNTER AAF CLOUDY 42 40 89 NW5 30.16R FORT STEWART CLOUDY 42 39 88 NW3 30.17R STATESBORO CLOUDY 41 41 100 NW3 30.18R SYLVANIA CLOUDY 40 40 98 NW3 30.19R CLAXTON FAIR 41 39 93 CALM 30.19R ...CSRA...CENTRAL AND FAR SOUTHEAST GEORGIA... CITY SKY/WX TMP DP RH WIND PRES REMARKS THOMSON SUNNY 41 40 96 CALM 30.22R AUGUSTA-BUSH MOSUNNY 37 35 92 CALM 30.18R AUGUSTA-DANIEL MOSUNNY 41 37 86 NW7 30.18R SWAINSBORO FAIR 41 41 100 NW3 30.19R FOG VIDALIA CLOUDY 43 39 87 CALM 30.19R EASTMAN FAIR 42 42 100 CALM 30.23R HAZLEHURST FAIR 43 42 97 W3 30.18S ALMA CLOUDY 43 40 89 NW5 30.19R WAYCROSS CLOUDY 49 45 86 N5 30.20R JESUP FAIR 46 43 87 CALM 30.20R BAXLEY FAIR 45 43 93 CALM 30.19R BRUNSWICK CLOUDY 46 41 81 NW5 30.20R SAINT SIMONS PTSUNNY 48 42 80 NW5 30.19R $$ SCZ027-028-034-036>038-045-046-048>050-GAZ119-141-181500- ...LAKE AND SUPPLEMENTAL COASTAL OBSERVATIONS... STATION/POSITION TIME TEMP WIND PRES WAVE SWELL AIR SEA DIR/SP/G HT/PER HT/PER/DIR (UTC) (F) (DEG/KT/KT) (MB) (FT/S) (FT/S/D) UPR LAKE MARION NOT AVBL WINYAH BAY 1400 45 20/ 4 1020.0S LAKE MURRAY 1300 43 10/ 2/ 5 1021.3R ACE BASIN NERRS 1400 42 300/ 1 1021.0S FORT PULASKI 1400 43 56 300/ 7/ 9 1022.1R SAPELO ISLAND 1400 46 320/ 6 1022.0S $$ ANZ835-935-AMZ111-154-330-350-352-354-370-450-454-472-181500- ...C-MAN AND BUOY OBSERVATIONS... STATION/POSITION TIME TEMP WIND PRES WAVE SWELL AIR SEA DIR/SP/G HT/PER HT/PER/DIR (UTC) (F) (DEG/KT/KT) (MB) (FT/S) (FT/S/D) BUOY 41004 1400 60 72 350/ 6/ 8 1020.6R 1/10 2/10 BUOY 41008 1400 54 57 310/ 8/ 10 1021.5R 1/11 FOLLY BEACH CMAN 1400 50 350/ 2/ 3 1021.7R CAPERS NEARSHORE 1300 50 10/ 6/ 8 N/A FRIPP NEARSHORE NOT AVBL STATION/POSITION TIME TEMP WIND PRES WAVE SWELL AIR SEA DIR/SP/G HT/PER HT/PER/DIR (UTC) (F) (DEG/KT/KT) (MB) (FT/S) (FT/S/D) 5E ST. MARYS GA 1400 61 N/A 1/11 FRYING PAN BUOY 1400 56 64 20/ 16/ 17 1021.2R 2/ 9 2/130/ 9 BUOY 41025 1300 51 1019.9R 3/ 4 CAPE LOOKOUT NC 1400 46 10/ 10/ 12 1021.0R BUOY 41002 1315 70 72 300/ 12/ 16 1019.5R 4/ 7 3/280/ 7 BUOY 41010 1400 71 76 270/ 12/ 14 1020.6R 2/ 9 2/120/ 9 ST AUGUSTINE FL 1400 51 320/ 6/ 8 1022.4R $$

USA.gov is the U.S. government's official web portal to all federal, state and local government web resources and services.